Weather Roundup
Issued by NWS Chicago, IL

Home | Current Version | Previous Version | Text Only | Print | Product List | Glossary On
Versions: 1 2 3 4 5 6 7 8 9 10 11 12 13 14 15 16 17 18 19 20 21 22 23 24 25 26 27 28 29 30 31 32 33 34 35 36 37 38 39 40 41 42 43 44 45 46 47 48 49 50
000
NZUS59 KLOT 032208
HRRLOT

CHICAGO AREA WEATHER ROUNDUP
NATIONAL WEATHER SERVICE CHICAGO/ROMEOVILLE IL
500 PM CDT TUE MAY 03 2016

NOTE: "FAIR" INDICATES FEW OR NO CLOUDS BELOW 12,000 FEET WITH NO
SIGNIFICANT WEATHER AND/OR OBSTRUCTIONS TO VISIBILITY.

* THESE STATIONS ARE NOT UNDER NWS QUALITY CONTROL. THEY ALSO MAY NOT
  REPORT WEATHER SUCH AS PRECIPITATION OR FOG.

ILZ005-006-012>014-019>023-032300-
NORTHEAST ILLINOIS

CITY           SKY/WX    TMP DP  RH WIND       PRES   REMARKS
OHARE          PTSUNNY   65  38  36 W16G22    29.80F
MIDWAY         PTSUNNY   66  36  32 W15       29.82F
AURORA         PTSUNNY   65  40  39 W15G25    29.83F
LANSING*       PTSUNNY   64  39  39 W12       29.83F
JOLIET*        MOSUNNY   67  40  36 W7        29.83F
WAUKEGAN       CLOUDY    66  37  34 VRB7G18   29.78F
DUPAGE AIRPORT MOSUNNY   65  38  36 W16G23    29.81F
WHEELING       PTSUNNY   65  37  35 W13       29.81F
KANKAKEE*      CLOUDY   N/A N/A N/A W9        29.85F
MORRIS*        CLOUDY    65  40  40 W16       29.82F
LEWIS AIRPORT* PTSUNNY   64  35  34 W9        29.82F
$$

WIZ051-052-058>065-066-070>072-032300-
SOUTHEAST WISCONSIN

CITY           SKY/WX    TMP DP  RH WIND       PRES   REMARKS
MILWAUKEE      CLOUDY    66  33  29 W15G28    29.75F
KENOSHA*       CLOUDY    65  39  38 W12       29.77F
RACINE*        CLOUDY    67  35  30 W14G20    29.77F
BURLINGTON     CLOUDY    65  35  32 W12G20    29.77F
WAUKESHA       PTSUNNY   64  34  32 W14G23    29.76F
WEST BEND      CLOUDY    64  32  29 W14G20    29.72F
$$

INZ001>003-010>013-019-020-032300-
NORTHWEST INDIANA

CITY           SKY/WX    TMP DP  RH WIND       PRES   REMARKS
GARY*          PTSUNNY   66  46  48 W14       29.83F
MICHIGAN CITY* NOT AVBL
RENSSELAER*    NOT AVBL
VALPARAISO     CLOUDY    63  38  39 W12       29.84F
$$

LMZ740>746-032300-
SOUTHERN LAKE MICHIGAN

STATION/POSITION TIME  SKY/WX   TEMP WIND        PRES    VSBY
                                AIR  DIR/SP/G
                 (UTC)          (F)  (DEG/KT/KT) (MB)    (MI)
HARRISON CRIB    2100            57  170/  8/  9   N/A
BURNHAM HARBOR   2200            65  260/ 10/ 15   N/A
CALUMET HARBOR   2100            66  220/  8/ 15 1009.5F
BURNS HARBOR     2100            64     CALM     1011.2F
MICHIGAN CITY    2100            62  240/  1/  1   N/A
$$

ABBREVIATIONS USED IN REMARKS
   TC - TEMPERATURE IN CELSIUS
  WCI - WIND CHILL INDEX
   HX - HEAT INDEX
  VSB - VISIBILITY
$$



USA.gov is the U.S. government's official web portal to all federal, state and local government web resources and services.